This demonstration page uses our WeatherBlox Daily Observations layout. Learn more.

Left ArrowRight Arrow

44.8408, -93.29828

Hourly Observations for November 9, 2016

Temp ( °F °C ) Dew Point ( °F °C ) Humidity (%) Winds ( mph kmh ) Pressure ( in mb ) Visibility ( mi km ) Precip ( " mm )
12:53 am 00:53 Mostly Clear 41 5 33 0.6 73 73 S 3 6 30.40 1030 10 16 0.00 0.00
1:53 am 01:53 Mostly Clear 39 3.9 32 0 76 76 Calm 30.40 1030 10 16 0.00 0.00
2:53 am 02:53 Clear 40 4.4 34 1.1 79 79 SSW 5 7 30.40 1030 10 16 0.00 0.00
3:53 am 03:53 Clear 39 3.9 34 1.1 82 82 SSW 3 6 30.38 1029 10 16 0.00 0.00
4:53 am 04:53 Mostly Clear 37 2.8 32 0 82 82 Calm 30.38 1029 10 16 0.00 0.00
5:53 am 05:53 Mostly Clear 38 3.3 33 0.6 83 83 Calm 30.39 1029 10 16 0.00 0.00
6:53 am 06:53 Mostly Clear 38 3.3 33 0.6 83 83 SSW 3 6 30.38 1029 10 16 0.00 0.00
7:53 am 07:53 Mostly Sunny 39 3.9 34 1.1 82 82 S 5 7 30.38 1029 10 16 0.00 0.00
8:53 am 08:53 Mostly Sunny 43 6.1 36 2.2 76 76 SW 5 7 30.37 1028 10 16 0.00 0.00
9:53 am 09:53 Mostly Sunny 49 9.4 37 2.8 64 64 SW 8 13 30.35 1028 10 16 0.00 0.00
10:53 am 10:53 Mostly Sunny 53 11.7 37 2.8 55 55 WSW 8 13 30.33 1027 10 16 0.00 0.00
11:53 am 11:53 Mostly Sunny 55 12.8 37 2.8 51 51 SW 10 17 30.30 1026 10 16 0.00 0.00
12:53 pm 12:53 Mostly Sunny 57 13.9 36 2.2 45 45 SW 15 24 30.26 1025 10 16 0.00 0.00
1:53 pm 13:53 Mostly Sunny 59 15 36 2.2 42 42 WSW 12 19 30.25 1024 10 16 0.00 0.00
2:53 pm 14:53 Mostly Sunny 59 15 35 1.7 41 41 SW 10 17 30.23 1024 10 16 0.00 0.00
3:53 pm 15:53 Partly Cloudy 59 15 36 2.2 42 42 SW 12 19 30.22 1023 10 16 0.00 0.00
4:53 pm 16:53 Partly Cloudy 57 13.9 37 2.8 47 47 SSW 8 13 30.18 1022 10 16 0.00 0.00
5:53 pm 17:53 Mostly Clear 55 12.8 37 2.8 51 51 SSW 8 13 30.16 1022 10 16 0.00 0.00
6:53 pm 18:53 Mostly Clear 54 12.2 36 2.2 51 51 SSW 7 11 30.15 1021 10 16 0.00 0.00
7:53 pm 19:53 Mostly Clear 54 12.2 35 1.7 49 49 SW 9 15 30.14 1021 10 16 0.00 0.00
8:53 pm 20:53 Mostly Clear 53 11.7 35 1.7 51 51 SW 9 15 30.13 1020 10 16 0.00 0.00
9:53 pm 21:53 Clear 52 11.1 35 1.7 53 53 SW 12 19 30.11 1020 10 16 0.00 0.00
10:53 pm 22:53 Clear 51 10.6 35 1.7 54 54 SW 13 20 30.08 1019 10 16 0.00 0.00
11:53 pm 23:53 Clear 51 10.6 35 1.7 54 54 SW 12 19 30.06 1018 10 16 0.00 0.00

Powered by AerisWeather